Back to catalog

STARLINK-35962

AliveCommunicationsVLEO
NORAD 66518·PAYLOAD·🇺🇸 United States

Launched Nov 19, 2025 from Cape Canaveral Space Force Station

Loading…

Next Passes (next 24 hours)

TLE

FreshSource: CelesTrak SupGP

Epoch: Sep 14, 2026, 21:07 UTC

1 66518C 25265C   26257.88034722 -.00002597  00000+0 -94080-4 0  2578
2 66518  43.0027 289.7892 0001481 269.0302 112.6420 15.27572835    17

Track STARLINK-35962 in real time with AllMySat

Download on the App Store